GW2364 Weather Reports


Display with metric or nautical units.
time (UTC)temp
F
wind
direction
speed
MPH
gust
MPH
rain 1hr
in
rain 24hr
in
rain mn
in
humidity
%
barometer
mb
20260903014504 90 76 0.0 2.0 0.00 0.00 0.00 53 1008.9
20260903013011 91 72 1.0 3.0 0.00 0.00 0.00 52 1008.8
20260903011505 91 61 1.0 3.0 0.00 0.00 0.00 51 1008.9
20260903010006 92 51 2.0 5.0 0.00 0.00 0.00 50 1008.7
20260903004504 93 49 1.0 5.0 0.00 0.00 0.00 49 1008.8
20260903003005 94 74 4.0 11.0 0.00 0.00 0.00 46 1008.8
20260903001506 97 213 0.0 3.0 0.00 0.00 0.00 42 1008.8
20260903000006 98 246 0.0 5.0 0.00 0.00 0.00 41 1008.7
20260902234504 99 235 1.0 4.0 0.00 0.00 0.00 40 1008.7
20260902233013 99 252 2.0 8.0 0.00 0.00 0.00 40 1008.8
20260902231505 100 84 0.0 7.0 0.00 0.00 0.00 38 1008.7
20260902230006 100 215 2.0 6.0 0.00 0.00 0.00 38 1008.6
20260902224506 100 258 1.0 8.0 0.00 0.00 0.00 39 1008.7
20260902223005 102 157 1.0 7.0 0.00 0.00 0.00 37 1008.7
20260902221504 101 180 2.0 7.0 0.00 0.00 0.00 37 1008.8
20260902220008 101 259 4.0 9.0 0.00 0.00 0.00 38 1008.9
20260902214509 100 232 1.0 7.0 0.00 0.00 0.00 40 1009.1
20260902213006 98 227 3.0 8.0 0.00 0.00 0.00 41 1009.2
20260902211504 98 132 3.0 12.0 0.00 0.00 0.00 41 1009.2
20260902210006 99 234 2.0 7.0 0.00 0.00 0.00 40 1009.3
20260902204504 100 105 1.0 7.0 0.00 0.00 0.00 40 1009.5
20260902203004 101 210 2.0 11.0 0.00 0.00 0.00 38 1009.6
20260902201509 102 90 2.0 7.0 0.00 0.00 0.00 40 1009.9
20260902200006 99 235 3.0 8.0 0.00 0.00 0.00 41 1010.0
20260902194504 98 36 1.0 4.0 0.00 0.00 0.00 43 1010.4
20260902193005 99 45 1.0 4.0 0.00 0.00 0.00 43 1010.6
20260902191511 98 5 1.0 9.0 0.00 0.00 0.00 42 1010.7
20260902190009 99 36 3.0 7.0 0.00 0.00 0.00 41 1010.9
20260902184503 99 298 0.0 4.0 0.00 0.00 0.00 41 1011.2
20260902183004 99 303 1.0 7.0 0.00 0.00 0.00 42 1011.3
20260902181504 100 241 2.0 7.0 0.00 0.00 0.00 41 1011.7
20260902180007 99 152 2.0 5.0 0.00 0.00 0.00 42 1012.1
20260902174506 98 184 1.0 8.0 0.00 0.00 0.00 44 1012.4
20260902173004 96 213 0.0 9.0 0.00 0.00 0.00 46 1012.7
20260902171504 96 242 1.0 8.0 0.00 0.00 0.00 47 1012.8
20260902170008 94 262 2.0 5.0 0.00 0.00 0.00 49 1013.0
20260902164510 94 302 2.0 8.0 0.00 0.00 0.00 51 1013.1
20260902163003 93 208 3.0 7.0 0.00 0.00 0.00 52 1013.2
20260902161504 92 314 1.0 7.0 0.00 0.00 0.00 55 1013.2
20260902160009 90 234 4.0 8.0 0.00 0.00 0.00 56 1013.3
20260902154503 90 246 4.0 7.0 0.00 0.00 0.00 58 1013.3
20260902153006 88 238 1.0 4.0 0.00 0.00 0.00 63 1013.4
20260902151503 86 229 1.0 8.0 0.00 0.00 0.00 67 1013.4
20260902150008 84 279 2.0 7.0 0.00 0.00 0.00 69 1013.3
20260902144503 83 261 2.0 6.0 0.00 0.00 0.00 72 1013.3
20260902143003 81 240 3.0 9.0 0.00 0.00 0.00 75 1013.4
20260902141505 81 306 2.0 6.0 0.00 0.00 0.00 75 1013.3
20260902140005 82 243 2.0 8.0 0.00 0.00 0.00 73 1013.5
20260902134504 81 233 1.0 5.0 0.00 0.00 0.00 75 1013.4
20260902133004 80 215 1.0 4.0 0.00 0.00 0.00 78 1013.4
20260902131503 78 232 2.0 4.0 0.00 0.00 0.00 81 1013.2
20260902130005 77 232 1.0 3.0 0.00 0.00 0.00 81 1013.0
20260902124503 76 232 0.0 2.0 0.00 0.00 0.00 81 1013.0
20260902123003 76 232 0.0 2.0 0.00 0.00 0.00 81 1012.9
20260902121504 77 232 1.0 3.0 0.00 0.00 0.00 81 1012.8
20260902120005 77 232 1.0 3.0 0.00 0.00 0.00 80 1012.7
20260902114503 76 232 0.0 4.0 0.00 0.00 0.00 80 1012.5
20260902113003 77 205 0.0 2.0 0.00 0.00 0.00 78 1012.4
20260902111502 77 171 0.0 2.0 0.00 0.00 0.00 78 1012.6
20260902110008 78 171 0.0 1.0 0.00 0.00 0.00 78 1012.6
20260902104502 78 171 1.0 2.0 0.00 0.00 0.00 78 1012.5
20260902103007 77 171 0.0 2.0 0.00 0.00 0.00 79 1012.5
20260902101503 78 171 1.0 2.0 0.00 0.00 0.00 78 1012.5
20260902100004 78 108 0.0 0.0 0.00 0.00 0.00 77 1012.4
20260902094504 78 108 0.0 0.0 0.00 0.00 0.00 78 1012.5
20260902093009 78 108 0.0 1.0 0.00 0.00 0.00 77 1012.4
20260902091502 78 108 0.0 1.0 0.00 0.00 0.00 77 1012.5
20260902090005 79 108 0.0 2.0 0.00 0.00 0.00 76 1012.6
20260902084505 79 108 0.0 2.0 0.00 0.00 0.00 76 1012.6
20260902083002 79 221 0.0 2.0 0.00 0.00 0.00 76 1012.6
20260902081503 80 221 0.0 1.0 0.00 0.00 0.00 75 1012.6
20260902080004 80 221 0.0 1.0 0.00 0.00 0.00 74 1012.5
20260902074502 80 221 0.0 1.0 0.00 0.00 0.00 74 1012.6
20260902073002 80 221 0.0 1.0 0.00 0.00 0.00 74 1012.6
20260902071503 81 221 0.0 3.0 0.00 0.00 0.00 72 1012.8
20260902070006 81 221 0.0 1.0 0.00 0.00 0.00 73 1012.7
20260902064503 82 221 0.0 1.0 0.00 0.00 0.00 72 1012.9
20260902063002 82 221 0.0 4.0 0.00 0.00 0.00 72 1012.6
20260902061505 82 184 0.0 2.0 0.00 0.00 0.00 72 1012.7
20260902060009 82 184 0.0 2.0 0.00 0.00 0.00 71 1012.8
20260902054505 83 109 0.0 2.0 0.00 0.00 0.00 71 1012.7
20260902053005 83 227 0.0 2.0 0.00 0.00 0.00 71 1012.7
20260902051505 84 115 0.0 3.0 0.00 0.00 0.00 70 1012.6
20260902050012 84 46 0.0 2.0 0.00 0.00 0.00 69 1012.7
20260902044504 85 132 0.0 3.0 0.00 0.00 0.00 68 1012.7
20260902043011 85 122 0.0 6.0 0.00 0.00 0.00 66 1012.7
20260902041504 86 56 1.0 7.0 0.00 0.00 0.00 65 1012.6
20260902040006 85 90 3.0 7.0 0.00 0.00 0.00 65 1012.6
20260902034504 85 75 1.0 3.0 0.00 0.00 0.00 63 1012.3
20260902033004 86 69 0.0 4.0 0.00 0.00 0.00 62 1012.2
20260902031504 86 78 1.0 3.0 0.00 0.00 0.00 62 1012.1
20260902030006 87 79 1.0 3.0 0.00 0.00 0.00 61 1011.9
20260902024504 87 92 1.0 2.0 0.00 0.00 0.00 60 1011.6
20260902023004 87 96 2.0 4.0 0.00 0.00 0.00 59 1011.3
20260902021512 88 101 0.0 3.0 0.00 0.00 0.00 57 1011.0
20260902020006 89 86 1.0 3.0 0.00 0.00 0.00 56 1011.0